www.pogodaiklimat.ru

Погода и климат >> Архив погоды >> Мексика >> Акапулько


АРХИВ ПОГОДЫ в Акапулько

Время (UTC), дата Ветер
(напр.,м/с)
 
Видим.   Явления Облачность Т
(С)
Тd
(С)
f
(%)
Тe
(С)
Тes
(С)
Комфортность P
(гПа)
Po
(гПа)
Тmin
(С)
Tmax
(С)
R
(мм)
R24
(мм)
S
(см)
06 15.04 В 2 10 км 1/1 800 м
[Cu med, cong]
+26.5 +22.8 80 +35 +35 очень
душно
1013.7 1013.2 +32.0
09 15.04 СВ 2 10 км 3/3 750 м
[Cu med, cong]
+23.8 +22.6 93 +31 +31 очень
душно
1012.3 1011.8
12 15.04 В 2 10 км 3/3 660 м
[Cu med, cong]
+20.6 +19.7 95 +26 +26 душно 1011.6 1011.2 +20.2 +32.0
15 15.04 СВ 1 20 км 1/0
[Cs]
+26.4 +21.3 74 +34 +43 очень
душно
1013.2 1012.7
18 15.04 ЮВ 2 20 км ясно +30.0 +22.7 65 +40 +61 опасность
солнечного
удара
1012.7 1012.3 +20.2 +33.1
21 15.04 З 4 20 км ясно +30.5 +23.6 67 +42 +52 опасность
перегрева
1010.4 1010.1
00 16.04 З 4 20 км ясно +28.1 +22.5 72 +37 +38 очень
душно
1010.4 1010.1 +20.2 +33.3
03 16.04 СЗ 2 10 км 1/0
[Cs]
+25.6 +23.0 86 +34 +34 очень
душно
1012.7 1012.4
06 16.04 З 1 10 км 1/0
[Cs]
+23.8 +21.7 88 +30 +30 очень
душно
1014.1 1013.6 +20.2 +33.3
09 16.04 СЗ 1 10 км 1/0
[Cs]
+22.2 +21.0 93 +29 +29 очень
душно
1014.1 1013.6
12 16.04 СЗ 1 10 км 1/0
[Cs]
+20.4 +18.5 89 +25 +25 комфорт 1013.2 1012.8 +20.0 +33.3
15 16.04 СВ 1 20 км ясно +28.6 +18.0 53 +33 +43 очень
душно
1013.9 1013.4
18 16.04 З 3 20 км ясно +31.4 +21.7 56 +40 +57 опасность
солнечного
удара
1013.2 1012.7 +20.0 +33.0
21 16.04 З 4 20 км ясно +32.2 +20.9 51 +39 +50 очень
душно
1010.4 1010.0
00 17.04 ЮЗ 3 20 км ясно +29.6 +23.2 69 +40 +41 очень
душно
1009.5 1009.0 +20.0 +33.8
03 17.04 З 1 10 км ясно +27.4 +17.8 56 +32 +32 очень
душно
1012.0 1011.6
06 17.04 З 1 10 км ясно +25.9 +23.3 86 +35 +35 очень
душно
1013.7 1013.2 +20.0 +33.8
09 17.04 СВ 1 10 км ясно +23.6 +20.5 83 +29 +29 душно 1013.0 1012.5
12 17.04 З 1 10 км ясно +21.6 +18.6 83 +26 +26 душно 1011.3 1010.0 +20.1 +33.8
15 17.04 СВ 1 20 км ясно +27.4 +20.1 64 +34 +43 очень
душно
1013.9 1013.5
18 17.04 З 3 20 км ясно +31.8 +24.1 64 +44 +62 опасность
перегрева
1013.0 1012.4 +20.1 +34.9
21 17.04 З 3 20 км ясно +31.4 +24.3 66 +44 +56 опасность
перегрева
1010.0 1009.4
00 18.04 З 3 20 км ясно +29.0 +25.0 79 +42 +43 опасность
перегрева
1007.6 1007.1 +20.1 +35.0
03 18.04 ЮЗ 1 10 км ясно +26.7 +24.4 87 +37 +37 очень
душно
1010.0 1009.7
06 18.04 З 2 10 км ясно +25.9 +23.6 87 +35 +35 очень
душно
1011.1 1010.9 +20.1 +35.0
09 18.04 З 1 10 км ясно +24.3 +23.0 92 +32 +32 очень
душно
1010.4 1010.1
12 18.04 С 1 12 км 1/1 870 м
[Cu hum]
+23.3 +22.8 97 +32 +32 очень
душно
1010.2 1009.9 +22.9 +35.0
15 18.04 СВ 2 18 км мгла ясно +28.8 +23.0 71 +39 +47 очень
душно
1011.1 1010.6
18 18.04 З 3 18 км мгла ясно +30.6 +23.6 66 +41 +59 опасность
перегрева
1010.2 1009.7 +22.9 +31.2
21 18.04 ЮЗ 4 18 км мгла 4/4 840 м
[Cu med, cong]
+30.0 +24.0 70 +41 +48 опасность
перегрева
1008.1 1007.6
00 19.04 ЮЗ 3 18 км мгла 1/1 840 м
[Cu med, cong]
+28.2 +23.6 76 +38 +39 очень
душно
1007.6 1007.1 +22.9 +31.8
03 19.04 ЮВ 2 10 км 1/1 900 м
[Cu med, cong]
+26.0 +24.0 89 +36 +36 очень
душно
1009.2 1008.7
06 19.04 ЮВ 2 10 км 1/1 800 м
[Cu med, cong]
+25.0 +23.5 91 +34 +34 очень
душно
1011.1 1010.7 +22.9 +31.8
09 19.04 В 2 10 км 3/3 900 м
[Cu med, cong]
+23.6 +23.0 96 +31 +31 очень
душно
1011.4 1011.1
12 19.04 В 2 10 км 3/3 960 м
[Cu med, cong]
+22.6 +21.7 95 +30 +30 очень
душно
1011.8 1011.3 +22.0 +31.8
15 19.04 З 1 20 км 5/4 900 м
[Cu med, cong Ci fib]
+26.4 +22.6 80 +35 +40 очень
душно
1013.4 1013.0
18 19.04 З 2 20 км 1/0 1260 м
[Ac trans]
+30.0 +21.9 62 +39 +59 опасность
солнечного
удара
1012.7 1012.4 +22.0 +31.5
21 19.04 З 3 20 км ясно +31.6 +22.8 60 +42 +54 опасность
перегрева
1010.6 1010.2
00 20.04 З 2 20 км ясно +28.3 +23.4 75 +38 +40 очень
душно
1010.2 1009.7 +22.0 +32.8
06 20.04 З 1 10 км ясно +25.0 +23.1 89 +33 +33 очень
душно
1014.1 1013.8 +22.0 +32.8
09 20.04 СЗ 1 10 км ясно +24.0 +13.1 51 +26 +26 жарко 1013.0 1012.6
12 20.04 СЗ 1 10 км 3/3 840 м
[Cu med, cong]
+22.6 +21.4 93 +30 +30 очень
душно
1013.0 1012.6 +22.2 +32.8
15 20.04 СЗ 2 20 км 3/3 900 м
[Cu med, cong]
+27.2 +21.9 73 +35 +41 очень
душно
1014.4 1014.0
18 20.04 З 3 20 км мгла ясно +31.7 +21.9 56 +40 +58 опасность
солнечного
удара
1013.7 1013.2 +22.2 +32.4
21 20.04 З 3 20 км мгла ясно +31.4 +26 +39 жарко 1012.0 1011.5
00 21.04 СЗ 2 20 км ясно +29.0 +23.7 73 +40 +41 очень
душно
1011.1 1010.6 +22.2 +33.6
03 21.04 З 2 10 км 3/0
[Cs]
+26.1 +24.1 89 +36 +36 очень
душно
1013.4 1013.1
06 21.04 В 1 10 км ясно +24.4 +23.1 92 +32 +32 очень
душно
1014.8 1014.5 +22.2 +33.6
09 21.04 В 1 10 км 3/0
[Cs]
+23.8 +23.2 96 +32 +32 очень
душно
1014.4 1014.0
12 21.04 С 1 12 км 3/0 1500 м
[Ac und Cs]
+22.7 +22.0 96 +31 +31 очень
душно
1014.1 1013.9 +22.2 +33.6
15 21.04 З 2 20 км ясно +28.6 +23.4 73 +39 +47 очень
душно
1015.3 1014.9
18 21.04 ЮЗ 2 20 км ясно +32.2 +22.0 55 +41 +62 опасность
перегрева
1014.8 1014.3 +22.2 +33.0
21 21.04 ЮЗ 3 20 км ясно +31.6 +22.6 59 +41 +54 опасность
перегрева
1012.3 1011.9
00 22.04 З 3 20 км 3/0
[Cs]
+30.4 +20.5 55 +37 +38 очень
душно
1011.6 1011.2 +22.2 +34.2
03 22.04 З 2 10 км ясно +25.9 +24.2 90 +36 +36 очень
душно
1013.4 1013.1

 

Местоположение метеостанции Акапулько (Мексика): широта 16.83 долгота -99.93 высота над уровнем моря 3 м.

В архиве по умолчанию представлена погода в Акапулько за последнюю неделю. Архивные данные за месяц целиком и за предыдущие месяцы, начиная с января 2011 года, Вы можете получить, выбрав интересующий диапазон дат из раскрывающегося списка и нажав кнопку "Ввод!".


*Определитесь, кто Вы:
робот инопланетянин человек

Внимание! Время в таблицах - всемирное. Для получения местного времени необходимо прибавить поправку, которая равна -6 ч.

Смотрите также архив погоды в соседних городах и на ближайших метеорологических станциях:

Погода в Чильпансинго (Мексика) (92 км)
Погода в Сакатепеке (Мексика) (223 км)
Погода в Куэрнаваке (Мексика) (240 км)
Погода в Уахуапан-де-Леоне (Мексика) (253 км)
Погода в Толуке (Мексика) (274 км)
Погода в Институте Географии (Мексика) (288 км)
Погода в Мехико (Мексика) (297 км)
Погода в Пуэбле (Мексика) (310 км)
Погода в Тлашкала аэропорту (Мексика) (329 км)
Погода в Тлашкале (Мексика) (329 км)

Пояснения к столбцам:

Ветер - указаны скорость ветра в м/с - средняя за 10 мин, порывы в срок и между сроками (в фигурных скобках) и направление, откуда дует ветер: С - северный, СВ - северо-восточный, В - восточный, ЮВ - юго-восточный, Ю - южный, ЮЗ - юго-западный, З - западный, СЗ - северо-западный.
Видимость - горизонтальная дальность видимости в метрах или километрах. При видимости от 1 до 10 км при отсутствии осадков обычно наблюдается дымка, при ухудшении видимости до 1 км и менее - туман. В сухую погоду видимость может ухудшаться дымом, пылью или мглою.
Явления - указаны атмосферные явления, наблюдавшиеся в срок или в последний час перед сроком; фигурными скобками обозначены явления, наблюдавшиеся между сроками (за 1-3 часа до срока); квадратными скобками обозначены град или гололедные отложения с указанием их диаметра в мм.
Облачность - указаны через наклонную черту общая и нижняя облачность в баллах и высота нижней границы облаков в метрах; квадратными скобками обозначены формы облаков: Ci - перистые, Cs - перисто-слоистые, Cc - перисто-кучевые, Ac - высококучевые, As - высокослоистые, Sc - слоисто-кучевые, Ns - слоисто-дождевые, Cu - кучевые, Cb - кучево-дождевые. Подробнее классификацию облаков см. в Атласе облаков (PDF).
T - Температура воздуха - температура, измеренная на высоте 2 м над землей.
Td - Температура точки росы - температура, при понижении до которой содержащийся в воздухе водяной пар достигнет насыщения.
f - Относительная влажность воздуха - влажноcть воздуха, измеренная на высоте 2 м над землей.
Te - Эффективная температура - температура, которую ощущает одетый по сезону человек в тени. Характеристика душности погоды. При расчете учитывается влияние влажности воздуха и скорости ветра на теплоощущения человека.
Tes - Эффективная температура на солнце - температура, которую ощущает человек, с поправкой на солнечный нагрев. Характеристика знойности погоды. Зависит от высоты солнца над горизонтом, облачности и скорости ветра. Ночью, в пасмурную погоду, а также при ветре 12 м/с и более поправка равна нулю.
P - Атмосферное давление - приведенное к уровню моря атмосферное давление.
Po - Атмосферное давление - измеренное на уровне метеостанции атмосферное давление.
Tmin - Минимальная температура - минимум температуры воздуха на высоте 2 м над землей.
Tmax - Максимальная температура - максимум температуры воздуха на высоте 2 м над землей.
R - Количество осадков - Количество выпавших осадков за период времени, мм. При наведении курсора мыши на число - период времени, за который выпало указанное количество осадков.
R24 - Количество осадков - Количество выпавших осадков за 24 часа, мм.
S - Снежный покров - Высота снежного покрова, см. При наведении курсора мыши на число - состояние снежного покрова и степень покрытия местности в баллах.